Regional Weather Roundup
Issued by NWS Memphis, TN

Home | Current Version | Previous Version | Text Only | Print | Product List | Glossary On
Versions: 1 2 3 4 5 6 7 8 9 10 11 12 13 14 15 16 17 18 19 20 21 22 23 24 25 26 27 28 29 30 31 32 33 34 35 36 37 38 39 40 41 42 43 44 45 46 47 48 49 50
910
ASUS44 KMEG 250010
RWRMEG
MEMPHIS CWA HOURLY WEATHER ROUNDUP
NATIONAL WEATHER SERVICE MEMPHIS TN
700 PM CDT SAT SEP 24 2016

...WEST TENNESSEE...

CITY           SKY/WX    TMP DP  RH WIND       PRES   REMARKS
MEMPHIS INTL   PTCLDY    91  64  40 SE6       29.99S HX  92
6HR MIN TEMP:  91; 6HR MAX TEMP:  97;

NWS MEMPHIS      N/A     85 N/A N/A MISG        N/A
JACKSON          N/A    N/A N/A N/A MISG      30.01F
BOLIVAR        CLEAR     82  68  61 CALM      30.01S
LEXINGTON      CLEAR     79  72  78 NE3       30.03S
DYERSBURG      CLEAR    N/A N/A N/A MISG        N/A
UNION CITY     CLEAR     84  66  54 CALM      30.00F
PARIS          CLEAR     77  68  73 CALM      30.04F
HUNTINGDON       N/A     81  70  69 CALM      30.02S


...EASTERN ARKANSAS...

CITY           SKY/WX    TMP DP  RH WIND       PRES   REMARKS
JONESBORO      MOCLDY    90  66  45 SE3       29.98S HAZE    HX  92
6HR MIN TEMP:  89; 6HR MAX TEMP:  95;

WEST MEMPHIS   CLEAR     82  67  60 CALM      29.97S
6HR MIN TEMP:  82; 6HR MAX TEMP:  96;

BATESVILLE     CLOUDY    82  70  65 CALM      29.99S
6HR MIN TEMP:  82; 6HR MAX TEMP:  93;

NEWPORT        CLOUDY    85  71  63 S3        29.98  HX  90
6HR MIN TEMP:  84; 6HR MAX TEMP:  94;

WALNUT RIDGE   CLEAR     84  66  54 E3        29.97F
6HR MIN TEMP:  84; 6HR MAX TEMP:  93;

BLYTHEVILLE    CLEAR     84  70  62 E3        29.99F
6HR MIN TEMP:  84; 6HR MAX TEMP:  96;

SEARCY         MOCLDY    83  76  79 CALM      29.99S HX  91
6HR MIN TEMP:  83; 6HR MAX TEMP:  93;

STUTTGART      PTCLDY    88  66  48 SE5       29.99S HX  90
6HR MIN TEMP:  88; 6HR MAX TEMP:  95;

PINE BLUFF     PTCLDY    85  69  58 E5        29.97F
6HR MIN TEMP:  85; 6HR MAX TEMP:  93;

MONTICELLO     CLEAR     84  72  67 CALM      29.98S
6HR MIN TEMP:  84; 6HR MAX TEMP:  93;



...NORTH MISSISSIPPI...

CITY           SKY/WX    TMP DP  RH WIND       PRES   REMARKS
TUPELO         CLEAR     89  59  36 NE6       29.99S
6HR MIN TEMP:  89; 6HR MAX TEMP:  98;

OXFORD         CLEAR     86  63  45 CALM      30.01S
BATESVILLE     CLEAR     82  69  66 CALM      29.99S
6HR MIN TEMP:  82; 6HR MAX TEMP:  97;

OLIVE BRANCH   CLEAR    N/A N/A N/A CALM      29.99F
TUNICA         CLEAR     86  63  45 E5        29.98S
CLARKSDALE     CLEAR     88  70  55 W5        29.98S HX  92
CORINTH        CLEAR     82  66  57 E3        30.00S
GREENWOOD      PTCLDY    82  68  62 CALM      29.97S
6HR MIN TEMP:  81; 6HR MAX TEMP:  97;

COLUMBUS       CLEAR     88  67  48 E2        29.98S HX  91
6HR MIN TEMP:  88; 6HR MAX TEMP:  97;

STARKVILLE     CLEAR     81  68  65 CALM      30.00S
GOLDEN TRIANGL CLEAR     90  63  40 NE7       29.99S HX  90


...SOUTHEAST MISSOURI...

CITY           SKY/WX    TMP DP  RH WIND       PRES   REMARKS
KENNETT        PTCLDY    86  66  51 SE6       29.97F
WEST PLAINS    CLEAR     81  66  60 SE5       30.04F
6HR MIN TEMP:  81; 6HR MAX TEMP:  88;

CAPE GIRARDEAU PTCLDY    81  71  71 CALM      30.01S
6HR MIN TEMP:  81; 6HR MAX TEMP:  92;



...NORTHWEST ALABAMA...

CITY           SKY/WX    TMP DP  RH WIND       PRES   REMARKS
MUSCLE SHOALS  CLEAR     87  60  40 E5        30.03S
6HR MIN TEMP:  87; 6HR MAX TEMP:  98;



...MIDDLE TENNESSEE...

CITY           SKY/WX    TMP DP  RH WIND       PRES   REMARKS
NASHVILLE      CLEAR     83  62  49 E6        30.06S
6HR MIN TEMP:  83; 6HR MAX TEMP:  92;

CLARKSVILLE    CLEAR     81  65  58 E5        30.05S
6HR MIN TEMP:  79; 6HR MAX TEMP:  92;

COLUMBIA       CLEAR     79  73  83 CALM      30.04S


...WESTERN KENTUCKY...

CITY           SKY/WX    TMP DP  RH WIND       PRES   REMARKS
PADUCAH        CLEAR     78  69  73 CALM      30.01F
6HR MIN TEMP:  78; 6HR MAX TEMP:  94;

FORT CAMPBELL  CLEAR     81  67  60 NE6       30.04F
6HR MIN TEMP:  81; 6HR MAX TEMP:  90;



...CENTRAL ARKANSAS...

CITY           SKY/WX    TMP DP  RH WIND       PRES   REMARKS
LITTLE ROCK    PTCLDY    86  70  58 S5        29.97F HX  90
6HR MIN TEMP:  86; 6HR MAX TEMP:  94;



SKY/WX REPORTED AS FAIR MEANS FEW OR NO CLOUDS BELOW
12 THOUSAND FEET.





USA.gov is the U.S. government's official web portal to all federal, state and local government web resources and services.